TITAN 3C TRANSTAGE DEB, 1883

Orbit data source: Space-Track

TITAN 3C TRANSTAGE DEB, 1883 is space debris in LEO originally from a launch on Fri, 15 Oct 1965 UTC launched from the Air Force Eastern Test Range (AFETR). Debris objects in space refer to the collection of defunct objects orbiting the Earth. Examples of debris include non-operational satellites, rocket bodies, and fragments generated from explosions, collisions, or faulty payload assembly.

Loading next visibility...
Identifier
1883, 1965-082EY
Orbit
LEO
Country
Flag of USUS
Related business
Manufacturer
Unknown
Mission
Spacecraft
Bus & Motor
Unknown
Mass
Unknown
Launch date (UTC)
1965-10-15 (61 years ago)
Launch vehicle
Unknown
Launch site
Air Force Eastern Test Range (AFETR)
Object type
Payload
Rocket body
Debris
Shape & HBR
Unknown shape, 0.1 m
Radar Cross Section
Small (<0.1 m²)

Expand to show TLE details & history
Last TLE update: 17 hours ago

TLE from 17 hours ago
0 TITAN 3C TRANSTAGE DEB
1 01883U 65082EY  26132.69380358  .00004311  00000-0  17396-3 0  9995
2 01883  32.0929 266.7632 0013294  89.0179 271.2006 15.23267216259887
Epoch: 2026-05-12T16:39Z
TLE epoch observation values (Epoch: 2026-05-12T16:39:04.629Z)
Latitude
-0.00002°
Longitude
146.52938°
Altitude
494.423 km
Speed
7.62 km/s
True Right ascension
17h 47m 03s
True Declination
0° 00' 00"
Sunlit
Object was in full shadow at epoch
Visualization orbit readout
Latitude
Unknown
Longitude
Unknown
Altitude
Unknown
Speed
Unknown
Apparent Right ascension
Unknown
Apparent Declination
Unknown
Sunlit
N/A
Visualization observer readout
Local Sidereal Time
18:08:26
Azimuth
Unknown
Elevation
Unknown
Doppler factor
Unknown
Orbital elements
Apogee altitude
508.837 km
Perigee altitude
490.55 km
Semi-major axis
6,877.83 km
Eccentricity
0.00133
Inclination
32.0929°
RAAN
266.7632°
Arg. of periapsis
89.0179°
True anomaly
271.04829°
Mean anomaly
271.2006°
Eccentric anomaly
271.12445°
Mean motion
3.8051 °/min
Orbital period
94.61 mins
BSTAR
0.00017396

Documentation

Showing up to 5 results
|